www.pogodaiklimat.ru

Погода и климат >> Архив погоды >> Россия >> город Москва >> Москва


АРХИВ ПОГОДЫ в Москве

Время (UTC), дата Ветер
(напр.,м/с)
 
Видим.   Явления Облачность Т
(С)
Тd
(С)
f
(%)
Тe
(С)
Тes
(С)
Комфортность P
(гПа)
Po
(гПа)
Тmin
(С)
Tmax
(С)
R
(мм)
R24
(мм)
S
(см)
15 8.12 Ю 3 н/о слабый снег 10/10 600 м
[Sc]
-3.8 -7.5 75 -9 -9 по сезону 1012.8 992.8 0.0
18 8.12 Ю 2 н/о слабый снег 10/8 300 м
[Frnb As op]
-4.6 -5.6 93 -9 -9 по сезону 1012.5 992.4 -3.6 2
21 8.12 Ю 2 н/о в посл. час снег 10/10 300 м
[Frnb]
-4.0 -5.3 91 -8 -8 по сезону 1012.1 992.0
00 9.12 Ю 2 н/о слабый снег 10/10 300 м
[Frnb]
-3.3 -4.5 91 -7 -7 по сезону 1011.8 991.8
03 9.12 Ю 1 н/о слабый снег 10/10 300 м
[Frnb]
-2.3 -3.7 90 -5 -5 по сезону 1011.2 991.3 -4.7 3
06 9.12 Ю 1 4000 м дымка {снег} 10/10 200 м
[St]
-1.2 -2.5 91 -3 -3 по сезону 1011.7 991.9 -4.7 1 14
09 9.12 Ю 1 4000 м снежные зёрна 10/10 200 м
[St]
+0.1 -1.0 92 -2 -2 по сезону 1012.0 992.3
12 9.12 штиль 0 4000 м снежные зёрна 10/10 100 м
[St]
+0.7 -0.4 92 -1 -1 тепло 1012.5 992.8
15 9.12 штиль 0 н/о дымка {снег} 10/10 100 м
[St]
+0.8 -0.2 93 -1 -1 тепло 1013.3 993.6 0.1
18 9.12 ЮВ 1 н/о дымка {снег} 10/10 100 м
[St]
+1.0 +0.3 95 -1 -1 тепло 1013.3 993.6 +1.0 0.1
21 9.12 Ю 1 н/о дымка 10/10 100 м
[St]
+1.0 +0.2 94 -1 -1 тепло 1013.7 994.0
00 10.12 Ю 1 н/о дымка {снег} 10/10 200 м
[St]
+0.8 -1.0 88 -1 -1 тепло 1013.8 994.1
03 10.12 Ю 3 н/о дымка 10/10 100 м
[St]
+0.9 -1.2 86 -4 -4 по сезону 1012.9 993.2 +0.6 0.0
06 10.12 ЮВ 2 4000 м дымка 10/10 200 м
[St]
+0.6 -1.0 89 -3 -3 по сезону 1011.7 992.0 +0.6 0.0 13
09 10.12 Ю 2 4000 м дымка 10/10 300 м
[St]
+0.3 -1.2 90 -3 -3 по сезону 1011.4 991.7
12 10.12 ЮВ 2 4000 м дымка 10/10 100 м
[St]
0.0 -0.9 94 -4 -4 по сезону 1010.2 990.5
15 10.12 ЮВ 2 н/о в посл. час ливневой снег 10/10 100 м
[St]
+0.1 -0.3 97 -4 -4 по сезону 1008.9 989.2 0.4
18 10.12 ЮВ 1 н/о слабая морось {ливн. осадки} 10/10 100 м
[St]
+0.5 0.0 96 -2 -2 по сезону 1008.1 988.5 +0.7 0.4
21 10.12 ЮВ 2 н/о слабый дождь {морось} 10/10 100 м
[Frnb Ns]
+1.2 +0.7 96 -2 -2 по сезону 1007.3 987.7
00 11.12 ЮВ 2 н/о в посл. час дождь {морось} 10/10 100 м
[St]
+1.6 +1.3 98 -2 -2 тепло 1006.5 987.0
03 11.12 ЮВ 2 н/о дымка 10/10 300 м
[Frnb]
+2.1 +0.7 90 -1 -1 тепло 1006.0 986.5 +0.5 0.7
06 11.12 ЮВ 2 4000 м дымка 10/10 300 м
[Frnb]
+2.2 +0.1 86 -1 -1 тепло 1006.1 986.6 +0.5 0.7 12
09 11.12 ЮВ 2 4000 м слабая морось 10/10 300 м
[St]
+1.7 +0.5 92 -2 -2 по сезону 1006.1 986.6
12 11.12 ЮВ 1 4000 м слабый снег {морось} 10/10 200 м
[Frnb]
+1.2 +0.3 94 -1 -1 тепло 1005.9 986.4
15 11.12 Ю 2 н/о дымка {снег} 10/10 300 м
[Frnb]
+1.5 +0.3 92 -2 -2 по сезону 1006.6 987.1 1
18 11.12 ЮВ 1 н/о дымка {снег} 10/10 300 м
[Frnb]
+1.2 +0.4 94 -1 -1 тепло 1007.0 987.5 +2.2 1
21 11.12 З 1 н/о слабый снег 10/10 300 м
[Frnb]
+0.2 -0.7 94 -2 -2 тепло 1010.2 990.5
00 12.12 З 1 н/о дымка 10/10 600 м
[Sc]
-0.4 -2.5 86 -2 -2 тепло 1011.4 991.6
03 12.12 З 1 н/о дымка 10/10 300 м
[Frnb]
-1.0 -2.9 87 -3 -3 по сезону 1013.2 993.3 -1.0 0.8
06 12.12 Ю 1 4000 м дымка 10/10
[Frnb]
-1.1 -3.0 87 -3 -3 по сезону 1014.9 995.0 -1.2 0.8 11
09 12.12 Ю 2 10 км 10/10 300 м
[Frnb]
0.0 -2.8 81 -4 -4 по сезону 1015.3 995.5
12 12.12 ЮВ 2 4000 м дымка 10/10 300 м
[St]
+0.3 -1.8 86 -3 -3 по сезону 1014.1 994.4
15 12.12 ЮВ 1 н/о слабый снег 10/10 300 м
[Frnb]
+0.6 -0.8 90 -1 -1 тепло 1013.3 993.6 0.1
18 12.12 Ю 2 н/о слабый дождь {снег} 10/10 200 м
[Frnb Ns]
+0.9 -0.2 92 -3 -3 по сезону 1012.1 992.4 +1.0 0.4
21 12.12 Ю 1 н/о в посл. час дождь 10/10 200 м
[Frnb Ns]
+1.7 +0.7 93 -0 -0 тепло 1011.2 991.6
00 13.12 Ю 1 н/о дымка {дождь} 10/10 200 м
[Frnb]
+2.3 +1.6 95 0 0 тепло 1009.5 990.0
03 13.12 Ю 1 н/о дымка 10/10 200 м
[St]
+2.8 +2.2 96 +1 +1 тепло 1008.9 989.4 +0.9 0.6
06 13.12 Ю 1 4000 м дымка 10/10 200 м
[St]
+3.1 +2.3 94 +1 +1 тепло 1009.1 989.6 +0.9 0.3 7
09 13.12 Ю 1 4000 м дымка 10/10 200 м
[Frnb]
+3.4 +2.4 93 +2 +2 тепло 1009.9 990.4
12 13.12 З 1 4000 м дымка 10/10 300 м
[Frnb]
+3.5 +1.4 86 +2 +2 тепло 1010.5 991.1
15 13.12 З 1 н/о дымка 10/4 600 м
[Sc Ac trans]
+2.6 +0.3 85 +1 +1 тепло 1012.2 992.6
18 13.12 З 1 н/о 10/4 300 м
[Frnb As op]
+2.0 -0.1 86 0 0 тепло 1013.4 993.8 +3.6
21 13.12 штиль 0 н/о дымка 10/0
[As op]
+1.1 -0.4 90 -0 -0 тепло 1014.1 994.4
00 14.12 штиль 0 н/о дымка 10/0
[As op]
0.0 -0.9 94 -1 -1 тепло 1014.2 994.4
03 14.12 штиль 0 н/о дымка 10/8 1000 м
[Sc As op]
+0.2 -0.5 95 -1 -1 тепло 1013.4 993.6 -0.2
06 14.12 штиль 0 4000 м дымка 10/4 600 м
[Sc Ac As]
+1.0 -0.3 91 -0 -0 тепло 1012.5 992.8 -0.2 5
09 14.12 В 1 4000 м слабый снег 10/10 200 м
[Frnb]
+1.0 +0.1 94 -1 -1 тепло 1011.2 991.5
12 14.12 В 1 4000 м слабый снег 10/10 200 м
[Frnb]
+0.7 -0.1 94 -1 -1 тепло 1009.6 989.9
15 14.12 ЮВ 1 н/о слабый снег 10/10 200 м
[Frnb Ns]
+0.7 0.0 95 -1 -1 тепло 1008.4 988.7 1
18 14.12 штиль 0 н/о слабый снег 10/10 100 м
[Frnb Ns]
+0.5 -0.1 96 -1 -1 тепло 1007.1 987.5 +1.2 2
21 14.12 штиль 0 н/о слабый снег 10/10 100 м
[Frnb Ns]
+0.7 +0.3 97 -1 -1 тепло 1006.4 986.8
00 15.12 штиль 0 н/о дымка {снег} 10/10 100 м
[Frnb]
+1.4 +1.0 97 0 0 тепло 1005.7 986.2
03 15.12 ЮЗ 1 н/о дымка 10/10 200 м
[Frnb]
+1.5 +0.6 94 -0 -0 тепло 1006.5 987.0 +0.4 2
06 15.12 Ю 1 4000 м дымка 10/10 300 м
[Frnb]
+1.6 +0.4 92 -0 -0 тепло 1007.4 987.9 +0.4 0.6 4
09 15.12 Ю 1 4000 м дымка 10/10 300 м
[Frnb]
+2.1 +0.3 88 0 0 тепло 1009.9 990.3
12 15.12 ЮЗ 1 4000 м дымка 10/10 300 м
[Frnb]
+1.7 +0.2 90 -0 -0 тепло 1011.8 992.2

 

Местоположение метеостанции Москва (город Москва, Россия): широта 55.83 долгота 37.62 высота над уровнем моря 156 м.

В архиве по умолчанию представлена погода в Москве за последнюю неделю. Архивные данные за месяц целиком и за предыдущие месяцы, начиная с января 2011 года, Вы можете получить, выбрав интересующий диапазон дат из раскрывающегося списка и нажав кнопку "Ввод!".

Внимание! Время в таблицах - всемирное. Для получения местного времени необходимо прибавить поправку, которая в Москве равна 3 ч.

Смотрите также архив погоды в соседних городах и на ближайших метеорологических станциях:

Погода в Москве (Балчуг) (город Москва, Россия) (9 км)
Погода в Москве (Тушино) (город Москва, Россия) (12 км)
Погода в Москве (Строгино) (город Москва, Россия) (14 км)
Погода в Шереметьево (Московская область, Россия) (20 км)
Погода в Немчиновке (город Москва, Россия) (21 км)
Погода в Подмосковной (Московская область, Россия) (29 км)
Погода в Внуково (Московская область, Россия) (33 км)
Погода в Михайловском (Московская область, Россия) (49 км)
Погода в Ново-Йерусалиме (Московская область, Россия) (51 км)
Погода в Домодедово (Московская область, Россия) (51 км)

Пояснения к столбцам:

Ветер - указаны скорость ветра в м/с - средняя за 10 мин, порывы в срок и между сроками (в фигурных скобках) и направление, откуда дует ветер: С - северный, СВ - северо-восточный, В - восточный, ЮВ - юго-восточный, Ю - южный, ЮЗ - юго-западный, З - западный, СЗ - северо-западный.
Видимость - горизонтальная дальность видимости в метрах или километрах. При видимости от 1 до 10 км при отсутствии осадков обычно наблюдается дымка, при ухудшении видимости до 1 км и менее - туман. В сухую погоду видимость может ухудшаться дымом, пылью или мглою.
Явления - указаны атмосферные явления, наблюдавшиеся в срок или в последний час перед сроком; фигурными скобками обозначены явления, наблюдавшиеся между сроками (за 1-3 часа до срока); квадратными скобками обозначены град или гололедные отложения с указанием их диаметра в мм.
Облачность - указаны через наклонную черту общая и нижняя облачность в баллах и высота нижней границы облаков в метрах; квадратными скобками обозначены формы облаков: Ci - перистые, Cs - перисто-слоистые, Cc - перисто-кучевые, Ac - высококучевые, As - высокослоистые, Sc - слоисто-кучевые, Ns - слоисто-дождевые, Cu - кучевые, Cb - кучево-дождевые. Подробнее классификацию облаков см. в Атласе облаков (PDF).
T - Температура воздуха - температура, измеренная на высоте 2 м над землей.
Td - Температура точки росы - температура, при понижении до которой содержащийся в воздухе водяной пар достигнет насыщения.
f - Относительная влажность воздуха - влажноcть воздуха, измеренная на высоте 2 м над землей.
Te - Эффективная температура - температура, которую ощущает одетый по сезону человек в тени. Характеристика душности погоды. При расчете учитывается влияние влажности воздуха и скорости ветра на теплоощущения человека.
Tes - Эффективная температура на солнце - температура, которую ощущает человек, с поправкой на солнечный нагрев. Характеристика знойности погоды. Зависит от высоты солнца над горизонтом, облачности и скорости ветра. Ночью, в пасмурную погоду, а также при ветре 12 м/с и более поправка равна нулю.
P - Атмосферное давление - приведенное к уровню моря атмосферное давление.
Po - Атмосферное давление - измеренное на уровне метеостанции атмосферное давление.
Tmin - Минимальная температура - минимум температуры воздуха на высоте 2 м над землей.
Tmax - Максимальная температура - максимум температуры воздуха на высоте 2 м над землей.
R - Количество осадков - Количество выпавших осадков за период времени, мм. При наведении курсора мыши на число - период времени, за который выпало указанное количество осадков.
R24 - Количество осадков - Количество выпавших осадков за 24 часа, мм.
S - Снежный покров - Высота снежного покрова, см. При наведении курсора мыши на число - состояние снежного покрова и степень покрытия местности в баллах.